When you browse on this site, cookies collect data to enhance your experience and personalize the content and advertising you see.
Visit our Privacy Policy to learn more. By continuing to use the site, you agree to this use of cookies and data.
  • In United Kingdom
  • List of Countries
  • For 7 days
  • Water Temperature
  • Satellite Maps
  • Weather Map
  • Weather Widgets
  • user-avatar
    Login

    Hourly Weather Takhtakupyr

    Today, 25 April, Thursday

    Time Temperature Precipitation Wind Pressure Humidity
    00:00 +13°C° 0 mm 4 mps 760 mmHg 39%
    01:00 +12°C° 0 mm 4 mps 760 mmHg 46%
    02:00 +12°C° 0.1 mm 5 mps 760 mmHg 53%
    03:00 +10°C° 0.1 mm 5 mps 760 mmHg 61%
    04:00 +11°C° 0 mm 4 mps 760 mmHg 65%
    05:00 +11°C° 0 mm 4 mps 761 mmHg 63%
    06:00 +11°C° 0 mm 4 mps 761 mmHg 61%
    07:00 +12°C° 0 mm 4 mps 761 mmHg 60%
    08:00 +13°C° 0 mm 4 mps 761 mmHg 51%
    09:00 +14°C° 0 mm 4 mps 761 mmHg 42%
    10:00 +15°C° 0 mm 5 mps 761 mmHg 34%
    11:00 +16°C° 0 mm 5 mps 761 mmHg 32%
    12:00 +16°C° 0 mm 5 mps 761 mmHg 31%
    13:00 +16°C° 0 mm 5 mps 761 mmHg 30%
    14:00 +16°C° 0 mm 5 mps 761 mmHg 28%
    15:00 +17°C° 0 mm 5 mps 761 mmHg 26%
    16:00 +17°C° 0 mm 5 mps 761 mmHg 24%
    17:00 +18°C° 0 mm 4 mps 761 mmHg 25%
    18:00 +17°C° 0 mm 4 mps 761 mmHg 26%
    19:00 +17°C° 0 mm 4 mps 761 mmHg 27%
    20:00 +16°C° 0 mm 3 mps 761 mmHg 29%
    21:00 +15°C° 0 mm 2 mps 762 mmHg 31%
    22:00 +15°C° 0 mm 1 mps 762 mmHg 33%
    23:00 +14°C° 0 mm 1 mps 762 mmHg 34%

    Tomorrow, 26 April, Friday

    Time Temperature Precipitation Wind Pressure Humidity
    00:00 +14°C° 0 mm 2 mps 762 mmHg 34%
    01:00 +14°C° 0 mm 2 mps 762 mmHg 34%
    02:00 +13°C° 0 mm 2 mps 762 mmHg 34%
    03:00 +12°C° 0 mm 3 mps 762 mmHg 34%
    04:00 +12°C° 0 mm 3 mps 762 mmHg 33%
    05:00 +13°C° 0 mm 3 mps 762 mmHg 31%
    06:00 +13°C° 0 mm 3 mps 762 mmHg 29%
    07:00 +14°C° 0 mm 3 mps 762 mmHg 28%
    08:00 +16°C° 0 mm 3 mps 762 mmHg 26%
    09:00 +18°C° 0 mm 3 mps 762 mmHg 24%
    10:00 +19°C° 0 mm 3 mps 762 mmHg 23%
    11:00 +19°C° 0 mm 3 mps 762 mmHg 23%
    12:00 +20°C° 0 mm 4 mps 762 mmHg 23%
    13:00 +21°C° 0 mm 4 mps 762 mmHg 23%
    14:00 +21°C° 0 mm 4 mps 762 mmHg 23%
    15:00 +21°C° 0 mm 5 mps 762 mmHg 24%
    16:00 +21°C° 0 mm 5 mps 761 mmHg 25%
    17:00 +21°C° 0 mm 5 mps 761 mmHg 26%
    18:00 +20°C° 0 mm 4 mps 761 mmHg 27%
    19:00 +20°C° 0 mm 4 mps 761 mmHg 28%
    20:00 +19°C° 0 mm 4 mps 761 mmHg 30%
    21:00 +19°C° 0 mm 4 mps 762 mmHg 31%
    22:00 +18°C° 0 mm 4 mps 762 mmHg 33%
    23:00 +18°C° 0 mm 4 mps 762 mmHg 35%

    Day after tomorrow, 27 April, Saturday

    Time Temperature Precipitation Wind Pressure Humidity
    00:00 +17°C° 0 mm 4 mps 762 mmHg 37%
    01:00 +15°C° 0 mm 4 mps 761 mmHg 38%
    02:00 +15°C° 0 mm 4 mps 762 mmHg 41%
    03:00 +14°C° 0 mm 4 mps 762 mmHg 44%
    04:00 +14°C° 0 mm 4 mps 762 mmHg 46%
    05:00 +15°C° 0 mm 4 mps 762 mmHg 44%
    06:00 +15°C° 0 mm 4 mps 762 mmHg 41%
    07:00 +16°C° 0 mm 5 mps 763 mmHg 39%
    08:00 +17°C° 0 mm 5 mps 763 mmHg 35%
    09:00 +20°C° 0 mm 5 mps 763 mmHg 31%
    10:00 +21°C° 0 mm 4 mps 763 mmHg 28%
    11:00 +22°C° 0 mm 4 mps 763 mmHg 26%
    12:00 +22°C° 0 mm 3 mps 763 mmHg 25%
    13:00 +24°C° 0 mm 3 mps 762 mmHg 24%
    14:00 +24°C° 0 mm 2 mps 762 mmHg 24%
    15:00 +24°C° 0 mm 2 mps 762 mmHg 23%
    16:00 +24°C° 0 mm 2 mps 762 mmHg 23%
    17:00 +24°C° 0 mm 2 mps 762 mmHg 25%
    18:00 +24°C° 0 mm 3 mps 762 mmHg 27%
    19:00 +22°C° 0 mm 3 mps 762 mmHg 28%
    20:00 +22°C° 0 mm 3 mps 762 mmHg 31%
    21:00 +21°C° 0 mm 4 mps 762 mmHg 34%
    22:00 +20°C° 0 mm 4 mps 762 mmHg 37%
    23:00 +20°C° 0 mm 4 mps 762 mmHg 38%

    28 April, Sunday

    Time Temperature Precipitation Wind Pressure Humidity
    00:00 +19°C° 0 mm 3 mps 762 mmHg 40%
    01:00 +18°C° 0 mm 3 mps 762 mmHg 41%
    02:00 +18°C° 0 mm 3 mps 761 mmHg 42%
    03:00 +18°C° 0 mm 3 mps 761 mmHg 43%
    04:00 +17°C° 0 mm 3 mps 761 mmHg 44%
    05:00 +18°C° 0 mm 3 mps 761 mmHg 42%
    06:00 +18°C° 0 mm 3 mps 761 mmHg 40%
    07:00 +19°C° 0 mm 3 mps 761 mmHg 37%
    08:00 +20°C° 0 mm 3 mps 761 mmHg 32%
    09:00 +22°C° 0 mm 3 mps 761 mmHg 27%
    10:00 +24°C° 0 mm 3 mps 761 mmHg 22%
    11:00 +25°C° 0 mm 3 mps 760 mmHg 20%
    12:00 +25°C° 0 mm 3 mps 760 mmHg 19%
    13:00 +26°C° 0 mm 3 mps 760 mmHg 17%
    14:00 +26°C° 0 mm 3 mps 759 mmHg 17%
    15:00 +26°C° 0 mm 3 mps 759 mmHg 16%
    16:00 +26°C° 0 mm 3 mps 758 mmHg 16%
    17:00 +26°C° 0 mm 3 mps 758 mmHg 16%
    18:00 +26°C° 0 mm 3 mps 758 mmHg 16%
    19:00 +25°C° 0 mm 3 mps 757 mmHg 17%
    20:00 +25°C° 0 mm 3 mps 757 mmHg 18%
    21:00 +24°C° 0 mm 3 mps 757 mmHg 19%
    22:00 +22°C° 0 mm 3 mps 757 mmHg 20%
    23:00 +22°C° 0 mm 3 mps 757 mmHg 21%

    29 April, Monday

    Time Temperature Precipitation Wind Pressure Humidity
    00:00 +21°C° 0 mm 3 mps 757 mmHg 21%
    01:00 +21°C° 0 mm 3 mps 756 mmHg 22%
    02:00 +20°C° 0 mm 3 mps 756 mmHg 23%
    03:00 +20°C° 0 mm 3 mps 756 mmHg 24%
    04:00 +19°C° 0 mm 3 mps 756 mmHg 26%
    05:00 +20°C° 0 mm 3 mps 756 mmHg 25%
    06:00 +20°C° 0 mm 3 mps 756 mmHg 25%
    07:00 +21°C° 0 mm 3 mps 756 mmHg 25%
    08:00 +22°C° 0 mm 3 mps 756 mmHg 22%
    09:00 +25°C° 0 mm 3 mps 756 mmHg 19%
    10:00 +26°C° 0 mm 3 mps 755 mmHg 15%
    11:00 +27°C° 0 mm 3 mps 755 mmHg 14%
    12:00 +27°C° 0 mm 3 mps 755 mmHg 13%
    13:00 +28°C° 0 mm 3 mps 754 mmHg 13%
    14:00 +28°C° 0 mm 3 mps 754 mmHg 12%
    15:00 +28°C° 0 mm 2 mps 753 mmHg 12%
    16:00 +28°C° 0 mm 2 mps 753 mmHg 11%
    17:00 +28°C° 0 mm 2 mps 752 mmHg 11%
    18:00 +28°C° 0 mm 2 mps 752 mmHg 12%
    19:00 +28°C° 0 mm 2 mps 752 mmHg 12%
    20:00 +27°C° 0 mm 3 mps 752 mmHg 13%
    21:00 +27°C° 0 mm 3 mps 752 mmHg 13%
    22:00 +26°C° 0 mm 4 mps 752 mmHg 14%
    23:00 +26°C° 0 mm 5 mps 752 mmHg 15%

    30 April, Tuesday

    Time Temperature Precipitation Wind Pressure Humidity
    00:00 +25°C° 0 mm 5 mps 751 mmHg 15%
    01:00 +24°C° 0 mm 6 mps 751 mmHg 16%
    02:00 +23°C° 0 mm 5 mps 751 mmHg 18%
    03:00 +22°C° 0 mm 5 mps 751 mmHg 21%
    04:00 +21°C° 0 mm 5 mps 751 mmHg 23%
    05:00 +22°C° 0 mm 5 mps 751 mmHg 24%
    06:00 +22°C° 0 mm 5 mps 751 mmHg 25%
    07:00 +22°C° 0 mm 5 mps 751 mmHg 26%
    08:00 +25°C° 0 mm 5 mps 752 mmHg 23%
    09:00 +26°C° 0 mm 6 mps 752 mmHg 21%
    10:00 +27°C° 0 mm 6 mps 752 mmHg 18%
    11:00 +28°C° 0 mm 6 mps 752 mmHg 17%
    12:00 +28°C° 0 mm 6 mps 752 mmHg 15%
    13:00 +29°C° 0 mm 6 mps 752 mmHg 14%
    14:00 +28°C° 0 mm 7 mps 752 mmHg 15%
    15:00 +28°C° 0 mm 7 mps 752 mmHg 16%
    16:00 +28°C° 0 mm 7 mps 752 mmHg 17%
    17:00 +27°C° 0 mm 7 mps 752 mmHg 18%
    18:00 +26°C° 0 mm 7 mps 753 mmHg 18%
    19:00 +24°C° 0 mm 7 mps 753 mmHg 19%
    20:00 +23°C° 0 mm 6 mps 753 mmHg 22%
    21:00 +23°C° 0 mm 5 mps 754 mmHg 25%
    22:00 +22°C° 0 mm 4 mps 754 mmHg 27%
    23:00 +21°C° 0 mm 4 mps 754 mmHg 34%
    Show more